This demonstration page uses our WeatherBlox Daily Observations layout. Learn more.

Left ArrowRight Arrow

40.92945, -100.16068

Hourly Observations for October 8, 2020

Temp ( °F °C ) Dew Point ( °F °C ) Humidity (%) Winds ( mph kmh ) Pressure ( in mb ) Visibility ( mi km ) Precip ( " mm )
12:15 am 00:15 Clear 58 14.5 40 4.7 52 52 E 9 15 30.05 1018 10 16 N/A
12:35 am 00:35 Clear 57 13.8 41 4.8 55 55 ENE 8 13 30.06 1018 10 16 N/A
12:55 am 00:55 Clear 55 12.8 40 4.7 58 58 ENE 7 11 30.07 1018 10 16 N/A
1:15 am 01:15 Clear 55 12.5 40 4.6 59 59 E 8 13 30.07 1018 10 16 N/A
1:35 am 01:35 Clear 56 13.1 40 4.6 57 57 ENE 10 17 30.05 1018 10 16 N/A
1:55 am 01:55 Clear 56 13.4 40 4.5 55 55 ENE 9 15 30.05 1018 10 16 N/A
2:15 am 02:15 Clear 55 13 40 4.5 57 57 ENE 9 15 30.05 1018 10 16 N/A
2:35 am 02:35 Clear 55 12.8 40 4.3 57 57 E 9 15 30.05 1017 10 16 N/A
2:55 am 02:55 Clear 55 12.6 40 4.2 57 57 E 9 15 30.05 1018 10 16 N/A
3:15 am 03:15 Clear 55 13 40 4.5 57 57 E 9 15 30.03 1017 10 16 N/A
3:35 am 03:35 Clear 55 12.8 40 4.5 57 57 E 8 13 30.04 1017 10 16 N/A
3:55 am 03:55 Clear 55 12.8 40 4.6 58 58 E 8 13 30.03 1017 10 16 N/A
4:15 am 04:15 Clear 55 13 41 4.9 58 58 E 8 13 30.02 1017 10 16 N/A
4:35 am 04:35 Clear 55 12.8 41 5 59 59 E 8 13 30.02 1016 10 16 N/A
4:55 am 04:55 Clear 55 12.6 42 5.3 61 61 E 9 15 30.02 1017 10 16 N/A
5:15 am 05:15 Clear 55 12.6 42 5.7 63 63 E 8 13 30.02 1017 10 16 N/A
5:35 am 05:35 Clear 55 12.5 43 6 65 65 E 7 11 30.02 1017 10 16 N/A
5:55 am 05:55 Clear 54 12 43 6 67 67 E 7 11 30.01 1016 10 16 N/A
6:15 am 06:15 Clear 52 11 42 5.8 71 71 ENE 5 7 30.02 1017 10 16 N/A
6:35 am 06:35 Clear 50 9.9 42 5.7 75 75 E 6 9 30.04 1017 10 16 N/A
6:55 am 06:55 Clear 49 9.5 42 5.6 77 77 E 6 9 30.05 1017 10 16 N/A
7:15 am 07:15 Clear 49 9.6 42 5.7 77 77 ENE 5 7 30.03 1017 10 16 N/A
7:35 am 07:35 Clear 48 9.1 42 5.6 79 79 E 6 9 30.04 1017 10 16 N/A
7:55 am 07:55 Sunny 49 9.4 43 5.9 79 79 E 5 7 30.04 1017 10 16 N/A
8:15 am 08:15 Sunny 48 9 42 5.7 80 80 ENE 5 7 30.04 1017 10 16 N/A
8:35 am 08:35 Sunny 49 9.3 43 6.1 81 81 E 3 6 30.04 1017 10 16 N/A
8:55 am 08:55 Sunny 52 11.1 45 7 76 76 ESE 6 9 30.02 1017 10 16 N/A
9:15 am 09:15 Sunny 54 12 46 7.5 74 74 E 6 9 30.01 1016 10 16 N/A
9:35 am 09:35 Sunny 56 13.1 47 8.4 73 73 SE 8 13 30.01 1016 10 16 N/A
9:55 am 09:55 Sunny 58 14.4 49 9.2 71 71 SE 9 15 29.99 1016 10 16 N/A
10:15 am 10:15 Sunny 58 14.7 49 9.2 70 70 SE 12 19 29.99 1016 10 16 N/A
10:35 am 10:35 Sunny 59 15.2 49 9.4 69 69 SE 8 13 29.98 1015 10 16 N/A
10:55 am 10:55 Sunny 62 16.4 50 10 66 66 SE 9 15 29.96 1015 10 16 N/A
11:15 am 11:15 Sunny 64 17.9 51 10.6 63 63 SE 9 15 29.95 1014 10 16 N/A
11:35 am 11:35 Sunny 67 19.2 52 11.1 60 60 SE 9 15 29.92 1013 10 16 N/A
11:55 am 11:55 Sunny 70 20.9 53 11.7 56 56 SE 14 22 29.90 1013 10 16 N/A
12:15 pm 12:15 Sunny 72 22.3 54 12.1 53 53 SE 12 19 29.88 1012 10 16 N/A
12:55 pm 12:55 Sunny 76 24.6 53 11.5 44 44 SSE 15 24 29.84 1011 10 16 N/A
1:15 pm 13:15 Sunny 78 25.6 53 11.8 42 42 S 17 28 29.83 1010 10 16 N/A
1:35 pm 13:35 Sunny 78 25.7 53 11.6 41 41 S 17 28 29.81 1010 10 16 N/A
1:55 pm 13:55 Sunny 80 26.9 53 11.5 38 38 S 20 31 29.79 1009 10 16 N/A
2:15 pm 14:15 Sunny 82 27.7 52 11.2 36 36 SSE 21 33 29.77 1008 10 16 N/A
2:35 pm 14:35 Sunny 83 28.2 52 10.9 34 34 SSE 16 26 29.76 1008 10 16 N/A
2:55 pm 14:55 Sunny 84 28.7 52 11 33 33 S 22 35 29.75 1007 10 16 N/A
3:15 pm 15:15 Sunny 85 29.2 52 11.3 33 33 S 20 31 29.74 1007 10 16 N/A
3:35 pm 15:35 Sunny 85 29.6 53 11.5 33 33 S 18 30 29.72 1007 10 16 N/A
3:55 pm 15:55 Sunny 85 29.6 53 11.5 33 33 S 20 31 29.71 1006 10 16 N/A
4:15 pm 16:15 Sunny 86 30 51 10.8 30 30 S 18 30 29.70 1006 10 16 N/A
4:35 pm 16:35 Sunny 86 30.1 52 11.2 31 31 S 15 24 29.70 1006 10 16 N/A
4:55 pm 16:55 Sunny 86 30 51 10.7 30 30 S 20 31 29.69 1005 10 16 N/A
5:15 pm 17:15 Sunny 86 30 51 10.5 30 30 S 20 31 29.68 1005 10 16 N/A
5:35 pm 17:35 Sunny 85 29.6 51 10.8 31 31 S 15 24 29.68 1005 10 16 N/A
5:55 pm 17:55 Sunny 83 28.5 51 10.6 33 33 SSE 14 22 29.69 1005 10 16 N/A
6:15 pm 18:15 Sunny 83 28.2 51 10.6 33 33 SSE 13 20 29.68 1005 10 16 N/A
6:35 pm 18:35 Sunny 81 27.4 51 10.3 34 34 SSE 12 19 29.69 1005 10 16 N/A
6:55 pm 18:55 Sunny 81 27 49 9.6 34 34 SSE 13 20 29.69 1006 10 16 N/A
7:15 pm 19:15 Clear 78 25.7 48 9.1 35 35 SSE 9 15 29.70 1006 10 16 N/A
7:35 pm 19:35 Clear 76 24.5 48 9.1 38 38 SSE 9 15 29.71 1006 10 16 N/A
7:55 pm 19:55 Clear 75 23.7 49 9.4 40 40 SSE 9 15 29.72 1006 10 16 N/A
8:15 pm 20:15 Clear 74 23.1 49 9.6 42 42 SSE 10 17 29.73 1007 10 16 N/A
8:35 pm 20:35 Clear 73 23 49 9.5 42 42 SSE 10 17 29.73 1007 10 16 N/A
8:55 pm 20:55 Clear 73 22.6 49 9.3 43 43 SSE 13 20 29.73 1007 10 16 N/A
9:15 pm 21:15 Clear 73 22.5 49 9.3 43 43 SSE 12 19 29.73 1007 10 16 N/A
9:35 pm 21:35 Clear 73 22.8 49 9.5 43 43 S 16 26 29.73 1007 10 16 N/A
9:55 pm 21:55 Clear 73 23 49 9.7 43 43 S 18 30 29.73 1007 10 16 N/A
10:15 pm 22:15 Clear 73 22.5 50 10.1 45 45 S 18 30 29.73 1007 10 16 N/A
10:35 pm 22:35 Clear 72 22.2 51 10.5 48 48 S 16 26 29.72 1007 10 16 N/A
10:55 pm 22:55 Clear 72 22.1 51 10.7 49 49 S 16 26 29.73 1007 10 16 N/A
11:15 pm 23:15 Clear 71 21.5 52 11 51 51 S 13 20 29.74 1007 10 16 N/A
11:35 pm 23:35 Clear 70 20.9 52 10.9 53 53 S 14 22 29.73 1007 10 16 N/A
11:55 pm 23:55 Clear 69 20.4 52 11 55 55 SSE 10 17 29.74 1007 10 16 N/A

Powered by AerisWeather